Location: Kumla
(59.1265°N, 15.1401°E)
Time: 07:47:22
(UTC+01:00)

Transit 2A - Pass Details

Date: 03 December 2023
Orbit: 600 x 953 km, 66.7° (Epoch: 21 February)

Event Time Altitude Azimuth Distance (km) Brightness Sun altitude
Rises 18:52:59 0° 262° (W) 3,056 10.4 -27.0°
Reaches altitude 10° 18:55:31 10° 270° (W) 2,091 9.3 -27.3°
Enters shadow 18:59:38 39° 330° (NNW) 957 6.7 -27.8°
Maximum altitude 18:59:55 40° 340° (NNW) 946 - -27.9°
Drops below altitude 10° 19:04:06 10° 50° (NE) 1,975 - -28.4°
Sets 19:06:25 0° 59° (ENE) 2,865 - -28.7°
